1507820400.71,7175,13.13,74020.5,0.57,-0.89,-0.89,0,*7B
1507820401.94,7176,13.13,74012.8,0.55,-0.89,-0.89,0,*7A
1507820403.18,7177,13.13,74014.5,0.55,-0.89,-0.93,0,*70
1507820404.38,7178,13.13,74022.0,0.57,-0.89,-0.93,0,*7D
1507820405.6,7179,13.13,74022.5,0.55,-0.81,-0.93,0,*76
1507820406.79,7180,13.13,74024.8,0.55,-0.77,-0.77,0,*73
1507820408.0,7181,13.13,74026.3,0.55,-0.77,-0.89,0,*73
1507820409.16,7182,13.13,74028.8,0.57,-0.69,-0.77,0,*7C
1507820410.33,7183,13.13,74034.3,0.57,-0.69,-0.77,0,*7D
1507820411.49,7184,13.13,74026.0,0.57,-0.69,-0.81,0,*73
1507820412.65,7185,13.13,74026.8,0.57,-0.69,-0.81,0,*72
1507820413.82,7186,13.13,74030.5,0.57,-0.69,-0.77,0,*78
1507820414.98,7187,13.13,74034.5,0.57,-0.77,-0.81,0,*7F
1507820416.16,7188,13.13,74038.0,0.57,-0.69,-0.89,0,*77
1507820417.37,7189,13.13,74040.5,0.59,-0.73,-0.85,0,*7F
1507820418.57,7190,13.13,74038.0,0.59,-0.73,-0.77,0,*7A
1507820419.78,7191,13.13,74036.3,0.59,-0.77,-0.85,0,*72
1507820420.99,7192,13.13,74036.0,0.59,-0.77,-0.85,0,*71
1507820422.2,7193,13.13,74032.8,0.59,-0.73,-0.85,0,*74
1507820423.36,7194,13.13,74040.5,0.61,-0.69,-0.81,0,*77
1507820424.6,7195,13.13,74044.3,0.59,-0.85,-0.97,0,*78
1507820425.81,7196,13.13,74038.5,0.61,-0.85,-0.97,0,*70
1507820427.02,7197,13.13,74036.5,0.61,-0.85,-0.93,0,*75
1507820428.23,7198,13.13,74038.3,0.61,-0.85,-0.97,0,*7E
1507820429.44,7199,13.13,74038.3,0.61,-0.93,-1.09,0,*4E
1507820430.65,7200,13.13,74040.0,0.61,-0.93,-1.09,0,*4D
1507820431.87,7201,13.13,74040.3,0.61,-0.85,-1.13,0,*40
1507820433.08,7202,13.13,74036.0,0.61,-0.93,-1.13,0,*44
1507820434.29,7203,13.13,74034.0,0.61,-0.97,-1.09,0,*4A
1507820435.51,7204,13.13,74032.0,0.61,-1.09,-1.13,0,*70
1507820436.71,7205,13.13,74034.8,0.61,-1.13,-1.25,0,*7F
1507820437.93,7206,13.13,74038.8,0.63,-1.21,-1.13,0,*7A
1507820439.13,7207,13.13,74038.0,0.61,-1.21,-1.09,0,*72
1507820440.3,7208,13.13,74038.8,0.61,-1.33,-1.33,0,*77
1507820441.5,7209,13.13,74038.0,0.61,-1.21,-1.09,0,*7C
1507820442.67,7210,13.13,74034.5,0.61,-1.25,-1.25,0,*7E
1507820443.89,7211,13.13,74022.0,0.59,-1.35,-1.29,0,*79
1507820445.07,7212,13.13,74026.0,0.61,-1.21,-1.21,0,*7C
1507820446.25,7213,13.13,74020.8,0.61,-1.25,-1.21,0,*79
1507820447.44,7214,13.13,74026.5,0.61,-1.33,-1.13,0,*78
1507820448.64,7215,13.13,74024.0,0.61,-1.33,-1.13,0,*79
1507820449.83,7216,13.13,74026.3,0.61,-1.43,-1.25,0,*78
1507820451.06,7217,13.13,74030.0,0.63,-1.43,-1.25,0,*7B
1507820452.22,7218,13.13,74032.0,0.61,-1.59,-1.25,0,*7D
1507820453.41,7219,13.13,74028.5,0.61,-1.55,-1.13,0,*75
1507820454.6,7220,13.13,74028.3,0.61,-1.55,-1.13,0,*7F
1507820455.82,7221,13.13,74022.3,0.61,-1.47,-1.09,0,*76
1507820457.04,7222,13.13,74022.5,0.61,-1.39,-0.85,0,*49
1507820458.26,7223,13.13,74020.3,0.61,-1.09,-0.85,0,*4B
1507820459.47,7224,13.13,74016.3,0.61,-0.97,-0.85,0,*7A
1507820460.66,7225,13.13,74014.5,0.61,-0.97,-0.81,0,*7F
1507820461.88,7226,13.13,74010.0,0.63,-0.85,-0.73,0,*70
1507820463.09,7227,13.13,74010.0,0.63,-0.85,-0.81,0,*7C
1507820464.31,7228,13.13,74008.5,0.63,-0.85,-0.81,0,*73
1507820465.49,7229,13.13,74020.5,0.61,-0.85,-0.81,0,*70
1507820466.7,7230,13.13,74020.3,0.61,-0.93,-0.93,0,*7C
1507820467.91,7231,13.13,74020.0,0.61,-0.85,-0.93,0,*7A
1507820469.12,7232,13.13,74020.0,0.61,-0.85,-0.85,0,*7E
1507820470.35,7233,13.13,74024.3,0.63,-0.85,-0.85,0,*7D
1507820471.59,7234,13.13,74028.8,0.63,-0.85,-0.85,0,*7A
1507820472.82,7235,13.13,74034.5,0.63,-0.85,-0.85,0,*7B
1507820474.04,7236,13.13,74032.3,0.63,-0.85,-0.81,0,*7C
1507820475.25,7237,13.13,74032.3,0.63,-0.85,-0.81,0,*7D
1507820476.44,7238,13.13,74030.0,0.63,-0.81,-0.81,0,*76
1507820477.68,7239,13.13,74028.5,0.63,-0.85,-0.85,0,*77
1507820478.91,7240,13.13,74028.0,0.63,-0.85,-0.85,0,*79
1507820480.12,7241,13.13,74036.3,0.63,-0.85,-0.81,0,*7C
1507820481.29,7242,13.13,74036.8,0.65,-0.77,-0.77,0,*7D
1507820482.52,7243,13.13,74032.8,0.63,-0.85,-0.93,0,*7D
1507820483.73,7244,13.13,74034.5,0.65,-0.85,-0.89,0,*77
1507820484.91,7245,13.13,74038.5,0.65,-0.81,-0.89,0,*72
1507820486.12,7246,13.13,74036.3,0.63,-1.21,-1.21,0,*7F
1507820487.37,7247,13.13,74024.5,0.63,-1.35,-1.43,0,*7F
1507820488.56,7248,13.13,74022.5,0.63,-1.25,-1.25,0,*71
1507820489.76,7249,13.13,74016.5,0.63,-1.21,-1.21,0,*70
1507820491.01,7250,13.13,74016.0,0.63,-1.09,-1.09,0,*78
1507820492.25,7251,13.13,74018.3,0.63,-1.01,-1.09,0,*71
1507820493.48,7252,13.13,74016.3,0.61,-1.01,-1.01,0,*78
1507820494.67,7253,13.13,74018.8,0.59,-1.17,-1.25,0,*73
1507820495.9,7254,13.13,74016.0,0.63,-1.21,-1.13,0,*7D
1507820497.12,7255,13.13,74012.5,0.63,-1.21,-1.13,0,*7C
1507820498.36,7256,13.13,74016.3,0.63,-1.13,-1.13,0,*7E
1507820499.58,7257,13.13,74024.5,0.61,-1.13,-1.09,0,*76
1507820500.8,7258,13.13,74026.0,0.61,-1.01,-0.93,0,*48
1507820502.02,7259,13.13,74022.3,0.61,-1.09,-1.01,0,*7B
1507820503.23,7260,13.13,74022.3,0.61,-0.97,-0.97,0,*79
1507820504.44,7261,13.13,74022.5,0.61,-0.93,-0.85,0,*7F
1507820505.64,7262,13.13,74020.8,0.61,-0.93,-0.85,0,*7C
1507820506.85,7263,13.13,74018.5,0.61,-0.93,-0.85,0,*7D
1507820508.06,7264,13.13,74016.3,0.63,-0.85,-0.81,0,*7B
1507820509.28,7265,13.13,74016.3,0.63,-0.85,-0.73,0,*77
1507820510.44,7266,13.13,74026.0,0.65,-0.77,-0.69,0,*74
1507820511.6,7267,13.13,74034.3,0.65,-0.77,-0.69,0,*75
1507820512.8,7268,13.13,74032.8,0.63,-0.73,-0.73,0,*73
1507820513.99,7269,13.13,74038.5,0.63,-0.69,-0.73,0,*79
1507820515.19,7270,13.13,74038.3,0.63,-0.69,-0.73,0,*71
1507820516.35,7271,13.13,74028.3,0.65,-0.77,-0.69,0,*72
1507820517.58,7272,13.13,74028.0,0.63,-0.93,-0.93,0,*78
1507820518.74,7273,13.13,74016.5,0.65,-0.81,-0.81,0,*7F
1507820519.93,7274,13.13,74028.8,0.65,-0.81,-0.89,0,*70
1507820521.14,7275,13.13,74028.8,0.63,-0.81,-0.85,0,*7B
1507820522.35,7276,13.13,74022.0,0.63,-0.81,-0.85,0,*78
1507820523.55,7277,13.13,74022.0,0.63,-0.81,-0.81,0,*7D
1507820524.74,7278,13.13,74024.3,0.63,-0.81,-0.73,0,*7F
1507820525.93,7279,13.13,74030.5,0.63,-0.81,-0.81,0,*73
1507820527.16,7280,13.13,74024.3,0.63,-0.93,-0.85,0,*72
1507820528.35,7281,13.13,74020.3,0.65,-0.89,-0.81,0,*7A
1507820529.58,7282,13.13,74018.3,0.63,-0.93,-0.85,0,*70
1507820530.79,7283,13.13,74012.3,0.65,-0.85,-0.85,0,*70
1507820532.02,7284,13.13,74014.3,0.63,-0.85,-0.85,0,*71
1507820533.24,7285,13.13,74018.8,0.63,-0.85,-0.73,0,*79
1507820534.4,7286,13.13,74020.8,0.65,-0.65,-0.69,0,*79
1507820535.59,7287,13.13,74022.3,0.63,-0.69,-0.73,0,*79
1507820536.79,7288,13.13,74022.0,0.63,-0.81,-0.81,0,*7D
1507820537.95,7289,13.13,74020.3,0.65,-0.77,-0.77,0,*7A
1507820539.11,7290,13.13,74020.5,0.65,-0.69,-0.77,0,*7D
1507820540.31,7291,13.13,74018.5,0.63,-0.81,-0.81,0,*75
1507820541.47,7292,13.13,74022.3,0.65,-0.69,-0.77,0,*7F
1507820542.66,7293,13.13,74024.0,0.63,-0.81,-0.81,0,*77
1507820543.88,7294,13.13,74018.8,0.63,-0.85,-0.81,0,*74
1507820545.04,7295,13.13,74022.5,0.65,-0.77,-0.77,0,*77
1507820546.24,7296,13.13,74020.5,0.63,-0.73,-0.73,0,*72
1507820547.4,7297,13.13,74030.0,0.65,-0.77,-0.77,0,*75
1507820548.61,7298,13.13,74024.8,0.63,-0.85,-0.81,0,*78
1507820549.78,7299,13.13,74028.8,0.65,-0.65,-0.69,0,*77
1507820550.97,7300,13.13,74028.8,0.63,-0.73,-0.73,0,*7C
1507820552.14,7301,13.13,74030.5,0.65,-0.77,-0.77,0,*7B
1507820553.37,7302,13.13,74032.3,0.63,-0.93,-0.85,0,*79
1507820554.6,7303,13.13,74034.8,0.63,-0.85,-0.93,0,*78
1507820555.84,7304,13.13,74030.3,0.63,-0.85,-0.85,0,*78
1507820557.07,7305,13.13,74028.5,0.63,-0.85,-0.85,0,*79
1507820558.23,7306,13.13,74032.5,0.65,-0.81,-0.81,0,*7C
1507820559.45,7307,13.13,74028.8,0.63,-0.73,-0.85,0,*72
1507820560.64,7308,13.13,74030.3,0.63,-0.81,-0.81,0,*74
1507820561.8,7309,13.13,74032.5,0.65,-0.69,-0.69,0,*73
1507820562.99,7310,13.13,74036.0,0.63,-0.73,-0.81,0,*70
1507820564.16,7311,13.13,74038.5,0.65,-0.69,-0.69,0,*7A
1507820565.32,7312,13.13,74034.3,0.65,-0.69,-0.77,0,*76
1507820566.53,7313,13.13,74034.3,0.65,-0.93,-0.97,0,*7C
1507820567.77,7314,13.13,74032.8,0.63,-0.97,-1.09,0,*4F
1507820568.98,7315,13.13,74040.0,0.65,-0.93,-1.05,0,*40
1507820570.19,7316,13.13,74040.5,0.65,-0.93,-1.09,0,*4F
1507820571.4,7317,13.13,74042.0,0.65,-0.97,-0.93,0,*78
1507820572.62,7318,13.13,74040.8,0.65,-1.09,-1.05,0,*7F
1507820573.84,7319,13.13,74044.5,0.63,-1.21,-1.13,0,*75
1507820575.08,7320,13.13,74046.8,0.63,-0.97,-0.85,0,*7D
1507820576.3,7321,13.13,74050.3,0.63,-1.21,-1.09,0,*75
1507820577.52,7322,13.13,74048.5,0.63,-1.21,-1.13,0,*7D
1507820578.76,7323,13.13,74050.3,0.63,-1.01,-0.93,0,*47
1507820579.97,7324,13.13,74040.8,0.61,-0.97,-0.85,0,*7B
1507820581.19,7325,13.13,74034.5,0.61,-1.01,-0.97,0,*47
1507820582.39,7326,13.13,74034.5,0.61,-1.21,-1.13,0,*7B
1507820583.61,7327,13.13,74026.8,0.61,-1.13,-1.09,0,*70
1507820584.83,7328,13.13,74024.3,0.61,-1.09,-1.01,0,*7C
1507820586.04,7329,13.13,74022.5,0.61,-0.97,-0.97,0,*75
1507820587.26,7330,13.13,74020.0,0.61,-1.09,-1.09,0,*7D
1507820588.5,7331,13.13,74020.5,0.59,-1.01,-1.01,0,*77
1507820589.73,7332,13.13,74026.3,0.59,-1.17,-1.13,0,*70
1507820590.98,7333,13.13,74030.3,0.59,-1.35,-1.39,0,*79
1507820592.2,7334,13.13,74034.8,0.59,-1.17,-1.13,0,*76
1507820593.42,7335,13.13,74034.3,0.59,-1.25,-1.35,0,*72
1507820594.67,7336,13.13,74038.3,0.59,-1.13,-1.13,0,*70
1507820595.91,7337,13.13,74038.5,0.59,-1.05,-1.13,0,*76
1507820597.14,7338,13.13,74038.5,0.55,-1.17,-1.09,0,*7D
1507820598.32,7339,13.13,74038.3,0.57,-1.17,-1.21,0,*74
1507820599.52,7340,13.13,74030.5,0.55,-1.17,-1.17,0,*7D
1507820600.71,7341,13.13,74024.0,0.57,-1.09,-1.29,0,*7C
1507820601.91,7342,13.13,74030.5,0.57,-1.21,-1.39,0,*74
1507820603.14,7343,13.13,74036.8,0.55,-1.21,-1.39,0,*77
1507820604.35,7344,13.13,74034.5,0.57,-1.17,-1.39,0,*77
1507820605.51,7345,13.13,74016.3,0.57,-1.51,-1.67,0,*7F
1507820606.71,7346,13.13,74020.8,0.55,-1.51,-1.63,0,*7A
1507820607.91,7347,13.13,74028.3,0.55,-1.55,-1.67,0,*7B
1507820609.08,7348,13.13,74032.3,0.57,-1.55,-1.63,0,*72
1507820610.27,7349,13.13,74028.3,0.55,-1.67,-1.63,0,*70
1507820611.44,7350,13.13,74038.0,0.57,-1.55,-1.51,0,*7A
1507820612.64,7351,13.13,74026.5,0.55,-1.67,-1.55,0,*7C
1507820613.83,7352,13.13,74018.3,0.55,-1.63,-1.51,0,*7F
1507820615.03,7353,13.13,74014.8,0.55,-1.55,-1.55,0,*7F
1507820616.28,7354,13.13,74012.3,0.55,-1.39,-1.39,0,*78
1507820617.51,7355,13.13,74006.5,0.55,-1.33,-1.43,0,*7E
1507820618.73,7356,13.13,74004.0,0.55,-1.43,-1.51,0,*79
1507820619.9,7357,13.13,74008.0,0.53,-1.55,-1.55,0,*7D
1507820621.07,7358,13.13,74004.8,0.53,-1.67,-1.55,0,*73
1507820622.29,7359,13.13,74004.8,0.55,-1.63,-1.43,0,*77
1507820623.48,7360,13.13,74002.8,0.57,-1.63,-1.43,0,*7F
1507820624.71,7361,13.13,74014.8,0.55,-1.67,-1.39,0,*75
1507820625.9,7362,13.13,74024.0,0.55,-1.63,-1.33,0,*78
1507820627.12,7363,13.13,74010.0,0.55,-1.67,-1.39,0,*77
1507820628.34,7364,13.13,74012.0,0.55,-1.43,-1.29,0,*77
1507820629.53,7365,13.13,74026.5,0.55,-1.51,-1.33,0,*7E
1507820630.73,7366,13.13,74012.0,0.53,-1.43,-1.25,0,*7F
1507820631.92,7367,13.13,74014.5,0.53,-1.47,-1.25,0,*7A
1507820633.13,7368,13.13,74012.5,0.51,-1.33,-1.21,0,*70
1507820634.34,7369,13.13,73998.5,0.53,-1.09,-1.13,0,*7B
1507820635.53,7370,13.13,73998.3,0.53,-1.33,-1.13,0,*7A
1507820636.74,7371,13.13,74010.0,0.51,-1.25,-1.21,0,*7F
1507820637.91,7372,13.13,74024.3,0.53,-1.21,-1.25,0,*7E
1507820639.15,7373,13.13,74024.3,0.51,-1.09,-0.97,0,*4F
1507820640.39,7374,13.13,74020.3,0.51,-1.09,-1.13,0,*75
1507820641.56,7375,13.13,74018.5,0.53,-1.33,-1.33,0,*7D
1507820642.78,7376,13.13,74022.5,0.53,-1.35,-1.35,0,*7E
1507820643.98,7377,13.13,74012.8,0.51,-1.55,-1.59,0,*71
1507820645.18,7378,13.13,74020.0,0.51,-1.33,-1.25,0,*75
1507820646.41,7379,13.13,74022.5,0.51,-1.21,-1.13,0,*72
1507820647.65,7380,13.13,74018.5,0.51,-1.09,-1.09,0,*75
1507820648.89,7381,13.13,74034.5,0.47,-1.13,-1.13,0,*73
1507820650.12,7382,13.13,74042.5,0.47,-1.17,-1.09,0,*7F
1507820651.37,7383,13.13,74034.0,0.51,-1.05,-0.97,0,*4C
1507820652.62,7384,13.13,74026.8,0.47,-1.09,-1.01,0,*7E
1507820653.86,7385,13.13,74020.8,0.47,-1.09,-1.13,0,*7C
1507820655.09,7386,13.06,74018.0,0.47,-1.13,-1.17,0,*70
1507820656.26,7387,13.13,74012.3,0.45,-1.25,-1.25,0,*77
1507820657.52,7388,13.13,74012.3,0.47,-1.39,-1.39,0,*7A
1507820658.72,7389,13.13,74020.3,0.47,-1.59,-1.51,0,*73
1507820659.95,7390,13.06,74034.3,0.45,-1.39,-1.35,0,*7D
1507820661.15,7391,13.13,74018.3,0.47,-1.29,-1.29,0,*72
1507820662.33,7392,13.13,74014.8,0.45,-1.17,-1.17,0,*73
1507820663.51,7393,13.13,74010.5,0.45,-1.25,-1.17,0,*73
1507820664.69,7394,13.13,74016.3,0.43,-1.21,-1.17,0,*76
1507820665.89,7395,13.13,74022.3,0.47,-1.17,-1.17,0,*76
1507820667.07,7396,13.13,74018.5,0.45,-1.29,-1.25,0,*7B
1507820668.24,7397,13.13,74018.3,0.45,-1.25,-1.25,0,*76
1507820669.42,7398,13.13,74008.3,0.45,-1.25,-1.17,0,*78
1507820670.62,7399,13.13,74004.0,0.45,-1.17,-1.13,0,*7C
1507820671.84,7400,13.13,74012.0,0.45,-1.09,-1.09,0,*7F
1507820673.07,7401,13.13,74012.5,0.45,-1.01,-1.09,0,*76
1507820674.27,7402,13.13,73998.3,0.45,-1.13,-1.17,0,*79
1507820675.45,7403,13.13,74018.8,0.43,-1.29,-1.29,0,*7A
1507820676.62,7404,13.13,74014.0,0.43,-1.29,-1.29,0,*7D
1507820677.8,7405,13.13,74016.0,0.43,-1.17,-1.17,0,*7C
1507820679.0,7406,13.13,74010.0,0.43,-1.21,-1.13,0,*7E
1507820680.17,7407,13.13,73992.8,0.43,-1.21,-1.21,0,*7E
1507820681.35,7408,13.13,73968.5,0.43,-1.29,-1.21,0,*79
1507820682.53,7409,13.13,73970.5,0.43,-1.29,-1.21,0,*78
1507820683.71,7410,13.06,73962.5,0.43,-1.29,-1.21,0,*70
1507820684.88,7411,13.13,73978.5,0.43,-1.33,-1.29,0,*72
1507820686.06,7412,13.13,73980.5,0.43,-1.33,-1.33,0,*7A
1507820687.25,7413,13.13,73998.8,0.41,-1.33,-1.33,0,*79
1507820688.43,7414,13.06,74004.5,0.43,-1.29,-1.33,0,*77
1507820689.62,7415,13.13,74010.5,0.41,-1.29,-1.29,0,*7F
1507820690.82,7416,13.13,74006.5,0.41,-1.21,-1.17,0,*79
1507820692.07,7417,13.06,74000.8,0.41,-1.05,-1.05,0,*7D
1507820693.3,7418,13.13,73998.3,0.41,-1.13,-1.17,0,*76
1507820694.5,7419,13.13,73998.3,0.43,-1.13,-1.21,0,*70
1507820695.72,7420,13.13,73986.3,0.41,-1.29,-1.39,0,*78
1507820696.95,7421,13.13,73988.3,0.41,-1.33,-1.43,0,*7F
1507820698.17,7422,13.13,73990.5,0.41,-1.29,-1.39,0,*7A
1507820699.37,7423,13.13,73978.5,0.43,-1.43,-1.55,0,*7F
1507820700.54,7424,13.13,73974.8,0.43,-1.55,-1.63,0,*7A
1507820701.74,7425,13.13,73984.8,0.41,-1.55,-1.51,0,*78
1507820702.93,7426,13.13,73998.5,0.41,-1.63,-1.51,0,*7E
1507820704.13,7427,13.13,73996.3,0.41,-1.79,-1.63,0,*75
1507820705.29,7428,13.13,73994.0,0.43,-1.67,-1.55,0,*72
1507820706.49,7429,13.13,74010.5,0.41,-1.55,-1.51,0,*74
1507820707.69,7430,13.13,74010.8,0.39,-1.55,-1.43,0,*70
1507820708.89,7431,13.13,74022.3,0.39,-1.35,-1.33,0,*70
1507820710.14,7432,13.13,73996.8,0.37,-1.39,-1.35,0,*77
1507820711.4,7433,13.13,74000.0,0.37,-1.39,-1.39,0,*7A
1507820712.59,7434,13.13,74004.0,0.41,-1.55,-1.63,0,*79
1507820713.82,7435,13.13,74006.0,0.39,-1.35,-1.43,0,*73
1507820715.0,7436,13.13,74000.8,0.39,-1.21,-1.21,0,*71
1507820716.22,7437,13.13,74002.5,0.37,-1.21,-1.13,0,*7F
1507820717.42,7438,13.13,74008.0,0.37,-1.25,-1.21,0,*75
1507820718.65,7439,13.06,74014.5,0.39,-1.35,-1.35,0,*7E
1507820719.88,7440,13.13,74010.0,0.37,-1.39,-1.33,0,*74
1507820721.08,7441,13.13,74012.8,0.39,-1.33,-1.35,0,*77
1507820722.25,7442,13.13,74014.5,0.39,-1.25,-1.25,0,*72
1507820723.44,7443,13.13,74014.8,0.39,-1.17,-1.21,0,*76
1507820724.64,7444,13.13,74012.8,0.39,-1.17,-1.09,0,*7B
1507820725.89,7445,13.13,74014.5,0.37,-1.13,-1.09,0,*70
1507820727.11,7446,13.13,74020.5,0.39,-1.05,-0.97,0,*4C
1507820728.32,7447,13.13,74026.3,0.39,-0.93,-0.93,0,*77
1507820729.55,7448,13.13,74024.0,0.39,-1.05,-1.05,0,*78
1507820730.77,7449,13.13,74030.8,0.39,-1.05,-0.97,0,*43
1507820732.01,7450,13.13,74028.8,0.41,-1.01,-0.89,0,*4F
1507820733.25,7451,13.06,74032.0,0.41,-1.01,-1.01,0,*7F
1507820734.5,7452,13.13,74038.3,0.41,-1.05,-1.01,0,*78
1507820735.74,7453,13.13,74030.0,0.41,-1.13,-1.13,0,*7D
1507820736.99,7454,13.13,74006.3,0.41,-1.13,-1.05,0,*7D
1507820738.22,7455,13.13,74006.5,0.43,-1.05,-1.01,0,*7D
1507820739.46,7456,13.06,74004.8,0.41,-1.05,-1.01,0,*7C
1507820740.71,7457,13.13,74014.3,0.41,-1.05,-1.01,0,*7D
1507820741.92,7458,13.13,74012.3,0.43,-0.93,-0.93,0,*74
1507820743.14,7459,13.13,74014.3,0.41,-0.93,-0.93,0,*77
1507820744.38,7460,13.13,74012.0,0.41,-0.89,-0.89,0,*7D
1507820745.57,7461,13.13,74014.0,0.43,-0.81,-0.89,0,*76
1507820746.78,7462,13.13,74010.5,0.41,-0.81,-0.89,0,*77
1507820747.97,7463,13.13,74012.0,0.41,-0.81,-0.77,0,*77
1507820749.16,7464,13.13,74016.8,0.43,-0.81,-0.89,0,*73
1507820750.35,7465,13.06,74004.5,0.41,-0.81,-0.81,0,*78
1507820751.53,7466,13.13,74008.0,0.43,-0.81,-0.89,0,*71
1507820752.72,7467,13.13,74010.3,0.41,-0.81,-0.81,0,*7A
1507820753.93,7468,13.13,74016.5,0.43,-0.89,-0.93,0,*7C
1507820755.17,7469,13.13,74006.3,0.41,-0.89,-1.01,0,*45
1507820756.42,7470,13.13,74012.0,0.41,-1.01,-1.05,0,*78
1507820757.64,7471,13.13,74006.3,0.43,-0.89,-1.01,0,*4E
1507820758.86,7472,13.13,74012.0,0.43,-0.89,-1.05,0,*49
1507820760.04,7473,13.13,74020.0,0.43,-0.81,-0.93,0,*7E
1507820761.23,7474,13.13,74012.5,0.43,-0.81,-0.89,0,*72
1507820762.45,7475,13.06,74012.0,0.43,-1.01,-1.01,0,*7B
1507820763.64,7476,13.13,74018.0,0.43,-0.89,-0.81,0,*70
1507820764.81,7477,13.13,74016.0,0.43,-0.81,-0.77,0,*70
1507820765.98,7478,13.13,74020.5,0.43,-0.81,-0.69,0,*70
1507820767.17,7479,13.13,74020.8,0.45,-0.85,-0.73,0,*78
1507820768.36,7480,13.13,74022.8,0.47,-0.65,-0.65,0,*75
1507820769.53,7481,13.13,74026.0,0.45,-0.65,-0.53,0,*73
1507820770.68,7482,13.13,74024.8,0.45,-0.61,-0.61,0,*75
1507820771.85,7483,13.13,74028.5,0.45,-0.65,-0.53,0,*71
1507820773.03,7484,13.06,74032.3,0.47,-0.61,-0.61,0,*71
1507820774.2,7485,13.06,74028.5,0.45,-0.77,-0.77,0,*72
1507820775.4,7486,13.13,74020.8,0.45,-0.85,-0.73,0,*78
1507820776.58,7487,13.13,74020.5,0.45,-0.73,-0.73,0,*70
1507820777.75,7488,13.13,74028.3,0.45,-0.73,-0.73,0,*7F
1507820778.96,7489,13.13,74032.5,0.45,-0.85,-0.85,0,*7E
1507820780.18,7490,13.13,74028.5,0.45,-0.85,-0.85,0,*76
1507820781.35,7491,13.13,74026.5,0.45,-0.73,-0.77,0,*73
1507820782.59,7492,13.13,74030.0,0.47,-0.85,-0.85,0,*76
1507820783.79,7493,13.13,74028.8,0.45,-0.97,-0.77,0,*7B
1507820785.0,7494,13.13,74030.0,0.47,-0.77,-0.85,0,*7D
1507820786.22,7495,13.13,74034.0,0.45,-0.97,-0.85,0,*70
1507820787.39,7496,13.06,74030.5,0.45,-0.77,-0.77,0,*70
1507820788.58,7497,13.06,74038.3,0.47,-0.73,-0.65,0,*74
1507820789.83,7498,13.13,74034.8,0.47,-1.01,-1.09,0,*74
1507820791.05,7499,13.06,74020.5,0.45,-1.01,-0.97,0,*41
1507820792.29,7500,13.13,74032.3,0.47,-0.89,-0.97,0,*73
1507820793.48,7501,13.13,74028.0,0.45,-0.85,-0.77,0,*72
1507820794.7,7502,13.06,74026.5,0.47,-0.85,-0.77,0,*73
1507820795.87,7503,13.06,74032.3,0.45,-0.73,-0.73,0,*7D
1507820797.04,7504,13.13,74038.5,0.45,-0.65,-0.65,0,*7A
1507820798.21,7505,13.13,74042.8,0.45,-0.73,-0.65,0,*7C
1507820799.45,7506,13.13,74030.8,0.47,-0.97,-1.13,0,*47
1507820800.71,7507,13.13,74030.0,0.47,-1.39,-1.39,0,*7B
1507820801.94,7508,13.13,74032.3,0.45,-1.35,-1.35,0,*76
1507820803.14,7509,13.06,74030.5,0.45,-1.13,-1.29,0,*7E
1507820804.34,7510,13.13,74034.5,0.45,-1.25,-1.39,0,*72
1507820805.52,7511,13.13,74036.0,0.45,-1.29,-1.63,0,*70
1507820806.73,7512,13.06,74024.8,0.43,-1.39,-1.63,0,*74
1507820807.93,7513,13.06,74020.3,0.43,-1.43,-1.63,0,*78
1507820809.1,7514,13.06,74016.5,0.43,-1.51,-1.51,0,*7D
1507820810.29,7515,13.13,74014.0,0.41,-1.51,-1.67,0,*7B
1507820811.46,7516,13.13,74014.0,0.43,-1.63,-1.67,0,*7B
1507820812.66,7517,13.06,74008.8,0.41,-1.63,-1.67,0,*78
1507820813.86,7518,13.06,74018.5,0.41,-1.67,-1.79,0,*7C
1507820815.05,7519,13.13,74034.3,0.41,-1.63,-1.75,0,*75
1507820816.22,7520,13.06,74016.5,0.43,-1.55,-1.63,0,*7F
1507820817.39,7521,13.13,74012.5,0.43,-1.67,-1.75,0,*78
1507820818.59,7522,13.13,74024.3,0.41,-1.67,-1.75,0,*79
1507820819.79,7523,13.06,74026.3,0.41,-1.63,-1.67,0,*7F
1507820820.96,7524,13.06,74022.0,0.43,-1.79,-1.79,0,*7E
1507820822.15,7525,13.13,74014.8,0.41,-1.75,-1.75,0,*7D
1507820823.35,7526,13.06,74000.5,0.43,-1.87,-1.79,0,*7D
1507820824.57,7527,13.13,74010.8,0.41,-1.87,-1.79,0,*7E
1507820825.78,7528,13.13,74010.0,0.39,-1.91,-1.71,0,*71
1507820827.0,7529,13.06,74018.0,0.41,-1.87,-1.67,0,*7F
1507820828.22,7530,13.06,74028.5,0.41,-1.75,-1.43,0,*7C
1507820829.41,7531,13.06,74022.0,0.41,-1.51,-1.33,0,*7C
1507820830.58,7532,13.13,74028.5,0.39,-1.55,-1.33,0,*74
1507820831.8,7533,13.06,74022.3,0.41,-1.67,-1.39,0,*71
1507820833.02,7534,13.06,74010.3,0.41,-1.75,-1.39,0,*75
1507820834.22,7535,13.13,74006.5,0.43,-1.67,-1.39,0,*75
1507820835.45,7536,13.13,74000.5,0.41,-1.39,-1.17,0,*73
1507820836.67,7537,13.06,74000.3,0.41,-1.29,-1.05,0,*70
1507820837.9,7538,13.06,74018.0,0.41,-1.21,-1.05,0,*77
1507820839.12,7539,13.06,74024.0,0.41,-1.17,-1.01,0,*77
1507820840.32,7540,13.06,74026.0,0.43,-1.33,-1.01,0,*7D
1507820841.53,7541,13.06,74002.0,0.43,-1.17,-1.05,0,*7E
1507820842.75,7542,13.06,74014.3,0.41,-1.17,-1.05,0,*7F
1507820843.99,7543,13.06,74012.0,0.41,-1.01,-0.89,0,*4C
1507820845.22,7544,13.06,74012.5,0.41,-0.93,-0.89,0,*71
1507820846.43,7545,13.13,74010.5,0.43,-0.89,-0.89,0,*79
1507820847.66,7546,13.06,74006.0,0.41,-0.89,-0.89,0,*78
1507820848.9,7547,13.06,74000.0,0.41,-0.89,-0.89,0,*79
1507820850.13,7548,13.06,73998.3,0.41,-0.89,-0.89,0,*76
1507820851.36,7549,13.06,74002.3,0.41,-0.93,-1.01,0,*4D
1507820852.61,7550,13.06,74010.5,0.41,-1.01,-1.01,0,*7F
1507820853.85,7551,13.06,74002.3,0.41,-1.01,-1.01,0,*7E
1507820855.07,7552,13.13,74004.3,0.43,-1.01,-1.01,0,*7F
1507820856.32,7553,13.13,74000.3,0.41,-1.01,-1.05,0,*78
1507820857.54,7554,13.06,73996.8,0.41,-1.13,-1.17,0,*7F
1507820858.76,7555,13.13,74018.3,0.41,-1.13,-1.17,0,*7E
1507820860.02,7556,13.06,74008.0,0.41,-1.05,-1.05,0,*79
1507820861.22,7557,13.06,74012.5,0.39,-1.09,-1.21,0,*7D
1507820862.42,7558,13.13,74008.3,0.39,-1.21,-1.35,0,*7D
1507820863.63,7559,13.06,74012.0,0.39,-1.21,-1.35,0,*7C
1507820864.83,7560,13.06,74012.3,0.39,-1.25,-1.43,0,*73
1507820866.03,7561,13.06,74002.3,0.37,-1.51,-1.51,0,*7C
1507820867.25,7562,13.06,73990.0,0.39,-1.43,-1.35,0,*70
1507820868.45,7563,13.06,73998.5,0.39,-1.47,-1.33,0,*73
1507820869.62,7564,13.06,73992.8,0.39,-1.55,-1.33,0,*77
1507820870.83,7565,13.06,74004.5,0.39,-1.43,-1.17,0,*77
1507820872.05,7566,13.06,74008.0,0.37,-1.21,-1.09,0,*71
1507820873.3,7567,13.06,74012.5,0.37,-1.13,-1.09,0,*71
1507820874.55,7568,13.06,74022.0,0.41,-1.13,-1.05,0,*73
1507820875.77,7569,13.06,74018.5,0.39,-1.09,-1.09,0,*7A
1507820876.97,7570,13.06,74022.0,0.39,-1.09,-1.17,0,*7D
1507820878.17,7571,13.06,74022.5,0.39,-1.05,-1.21,0,*75
1507820879.38,7572,13.06,74014.5,0.39,-1.17,-1.35,0,*70
1507820880.59,7573,13.06,74022.5,0.39,-1.33,-1.47,0,*72
1507820881.79,7574,13.13,74028.0,0.39,-1.33,-1.47,0,*75
1507820883.0,7575,13.06,74020.3,0.39,-1.25,-1.35,0,*76
1507820884.2,7576,13.06,74012.8,0.39,-1.33,-1.43,0,*73
1507820885.43,7577,13.13,74008.5,0.39,-1.35,-1.47,0,*70
1507820886.66,7578,13.13,74008.0,0.39,-1.43,-1.35,0,*7B
1507820887.83,7579,13.06,73996.8,0.39,-1.33,-1.33,0,*7B
1507820889.01,7580,13.13,74002.8,0.39,-1.25,-1.33,0,*7A
1507820890.21,7581,13.06,73998.8,0.39,-1.25,-1.35,0,*7D
1507820891.41,7582,13.13,74002.3,0.37,-1.21,-1.33,0,*72
1507820892.6,7583,13.06,74002.3,0.39,-1.09,-1.33,0,*77
1507820893.81,7584,13.06,74002.5,0.39,-1.21,-1.47,0,*79
1507820894.98,7585,13.06,73998.3,0.39,-1.25,-1.55,0,*7F
1507820896.19,7586,13.06,74010.3,0.39,-1.43,-1.67,0,*7D
1507820897.39,7587,13.06,74006.5,0.39,-1.71,-1.95,0,*70
1507820898.6,7588,13.06,74006.3,0.39,-2.11,-2.23,0,*74
1507820899.8,7589,13.06,74010.5,0.41,-2.19,-2.31,0,*71
1507820900.99,7590,13.06,74006.8,0.41,-2.27,-2.39,0,*7C
1507820902.18,7591,13.06,74004.5,0.41,-2.27,-2.27,0,*72
1507820903.4,7592,13.13,74014.3,0.37,-2.27,-2.11,0,*75
1507820904.63,7593,13.13,74012.5,0.39,-2.11,-2.11,0,*7F
1507820905.86,7594,13.06,74014.0,0.39,-1.99,-1.91,0,*70
1507820907.09,7595,13.06,74022.8,0.39,-1.99,-1.91,0,*71
1507820908.34,7596,13.06,74028.0,0.41,-2.03,-1.91,0,*7D
1507820909.56,7597,13.06,74030.5,0.41,-1.95,-1.79,0,*76
1507820910.78,7598,13.06,74034.8,0.39,-2.11,-1.95,0,*7B
1507820912.01,7599,13.06,74030.8,0.37,-2.15,-1.83,0,*77
1507820913.21,7600,13.06,73998.8,0.39,-2.11,-1.79,0,*7B
1507820914.39,7601,13.06,73984.0,0.39,-2.19,-1.79,0,*72
1507820915.6,7602,13.06,73990.3,0.39,-1.99,-1.67,0,*75
1507820916.8,7603,13.06,74002.0,0.39,-1.91,-1.55,0,*7D